Time,TemperatureF,DewpointF,PressureIn,WindDirection,WindDirectionDegrees,WindSpeedMPH,WindSpeedGustMPH,Humidity,HourlyPrecipIn,Conditions,Clouds,dailyrainin,SoftwareType,DateUTC
2013-02-02 00:00:00,23.9,5.0,29.81,WSW,243,3.1,3.1,43,0.00,,,0.00,WXlink_for_OpenVMS,2013-02-02 05:00:00,
2013-02-02 00:05:00,23.9,5.0,29.81,WSW,256,0.0,0.0,43,0.00,,,0.00,WXlink_for_OpenVMS,2013-02-02 05:05:00,
2013-02-02 00:10:00,23.7,5.0,29.81,SW,219,0.0,0.0,44,0.00,,,0.00,WXlink_for_OpenVMS,2013-02-02 05:10:00,
2013-02-02 00:15:00,23.7,5.0,29.81,WSW,248,0.0,0.0,44,0.00,,,0.00,WXlink_for_OpenVMS,2013-02-02 05:15:00,
2013-02-02 00:20:00,23.5,5.0,29.81,WSW,248,0.0,0.0,44,0.00,,,0.00,WXlink_for_OpenVMS,2013-02-02 05:20:00,
2013-02-02 00:25:00,23.5,5.0,29.81,SW,221,0.0,4.0,44,0.00,,,0.00,WXlink_for_OpenVMS,2013-02-02 05:25:00,
2013-02-02 00:30:00,23.5,5.0,29.81,SW,229,3.1,3.1,44,0.00,,,0.00,WXlink_for_OpenVMS,2013-02-02 05:30:00,
2013-02-02 00:35:00,23.4,5.0,29.81,WSW,239,3.6,4.0,44,0.00,,,0.00,WXlink_for_OpenVMS,2013-02-02 05:35:00,
2013-02-02 00:40:00,23.4,5.0,29.81,West,262,3.1,6.3,44,0.00,,,0.00,WXlink_for_OpenVMS,2013-02-02 05:40:00,
2013-02-02 00:45:00,23.4,5.0,29.81,West,265,2.2,3.6,44,0.00,,,0.00,WXlink_for_OpenVMS,2013-02-02 05:45:00,
2013-02-02 00:55:00,23.4,5.0,29.81,SW,230,2.7,3.6,44,0.00,,,0.00,WXlink_for_OpenVMS,2013-02-02 05:55:00,
2013-02-02 01:00:00,23.2,4.0,29.81,WSW,258,3.1,3.6,44,0.00,,,0.00,WXlink_for_OpenVMS,2013-02-02 06:00:00,
2013-02-02 01:05:00,23.2,4.0,29.81,SW,226,2.2,2.2,44,0.00,,,0.00,WXlink_for_OpenVMS,2013-02-02 06:05:00,
2013-02-02 01:10:00,23.2,4.0,29.81,West,265,3.1,3.1,44,0.00,,,0.00,WXlink_for_OpenVMS,2013-02-02 06:10:00,
2013-02-02 01:15:00,23.2,4.0,29.81,West,265,0.0,0.0,44,0.00,,,0.00,WXlink_for_OpenVMS,2013-02-02 06:15:00,
2013-02-02 01:21:00,23.0,4.0,29.81,SW,225,0.0,0.0,44,0.00,,,0.00,WXlink_for_OpenVMS,2013-02-02 06:21:00,
2013-02-02 01:30:00,23.0,5.0,29.84,West,280,0.0,0.0,45,0.00,,,0.00,WXlink_for_OpenVMS,2013-02-02 06:30:00,
2013-02-02 01:35:00,23.0,5.0,29.84,SW,231,0.0,0.0,45,0.00,,,0.00,WXlink_for_OpenVMS,2013-02-02 06:35:00,
2013-02-02 01:45:00,22.8,5.0,29.84,West,280,0.0,0.0,45,0.00,,,0.00,WXlink_for_OpenVMS,2013-02-02 06:45:00,
2013-02-02 01:50:00,22.8,5.0,29.84,WSW,245,0.0,0.0,45,0.00,,,0.00,WXlink_for_OpenVMS,2013-02-02 06:50:00,
2013-02-02 01:55:00,22.8,5.0,29.84,West,262,3.1,3.1,45,0.00,,,0.00,WXlink_for_OpenVMS,2013-02-02 06:55:00,
2013-02-02 02:00:00,22.8,5.0,29.84,SW,223,2.7,0.0,45,0.00,,,0.00,WXlink_for_OpenVMS,2013-02-02 07:00:00,
2013-02-02 02:05:00,23.0,5.0,29.84,West,264,0.0,0.0,45,0.00,,,0.00,WXlink_for_OpenVMS,2013-02-02 07:05:00,
2013-02-02 02:10:00,22.8,5.0,29.84,West,276,0.0,0.0,45,0.00,,,0.00,WXlink_for_OpenVMS,2013-02-02 07:10:00,
2013-02-02 02:15:00,22.8,5.0,29.84,SW,229,0.0,0.0,45,0.00,,,0.00,WXlink_for_OpenVMS,2013-02-02 07:15:00,
2013-02-02 02:20:00,22.8,5.0,29.84,WSW,248,2.7,3.1,45,0.00,,,0.00,WXlink_for_OpenVMS,2013-02-02 07:20:00,
2013-02-02 02:25:00,22.8,5.0,29.84,NW,317,3.6,4.0,46,0.00,,,0.00,WXlink_for_OpenVMS,2013-02-02 07:25:00,
2013-02-02 02:31:00,22.6,5.0,29.84,West,265,3.6,4.9,46,0.00,,,0.00,WXlink_for_OpenVMS,2013-02-02 07:31:00,
2013-02-02 02:40:00,22.5,4.0,29.84,SW,221,3.1,3.6,45,0.00,,,0.00,WXlink_for_OpenVMS,2013-02-02 07:40:00,
2013-02-02 02:45:00,22.5,4.0,29.84,West,270,4.9,4.9,45,0.00,,,0.00,WXlink_for_OpenVMS,2013-02-02 07:45:00,
2013-02-02 02:50:00,22.5,4.0,29.84,WNW,290,0.0,0.0,45,0.00,,,0.00,WXlink_for_OpenVMS,2013-02-02 07:50:00,
2013-02-02 02:55:00,22.5,4.0,29.84,WNW,299,4.0,4.0,45,0.00,,,0.00,WXlink_for_OpenVMS,2013-02-02 07:55:00,
2013-02-02 03:00:00,22.5,4.0,29.84,WNW,299,3.1,3.1,45,0.00,,,0.00,WXlink_for_OpenVMS,2013-02-02 08:00:00,
2013-02-02 03:05:00,22.3,4.0,29.84,West,261,3.1,0.0,45,0.00,,,0.00,WXlink_for_OpenVMS,2013-02-02 08:05:00,
2013-02-02 03:10:00,22.1,4.0,29.84,WSW,251,3.6,3.6,45,0.00,,,0.00,WXlink_for_OpenVMS,2013-02-02 08:10:00,
2013-02-02 03:15:00,22.1,4.0,29.84,WNW,292,2.7,3.6,45,0.00,,,0.00,WXlink_for_OpenVMS,2013-02-02 08:15:00,
2013-02-02 03:20:00,22.1,4.0,29.84,West,271,0.0,0.0,45,0.00,,,0.00,WXlink_for_OpenVMS,2013-02-02 08:20:00,
2013-02-02 03:25:00,22.1,4.0,29.84,SW,230,0.0,0.0,45,0.00,,,0.00,WXlink_for_OpenVMS,2013-02-02 08:25:00,
2013-02-02 03:30:00,22.1,4.0,29.86,SW,230,0.0,0.0,45,0.00,,,0.00,WXlink_for_OpenVMS,2013-02-02 08:30:00,
2013-02-02 03:35:00,22.1,4.0,29.86,SW,230,0.0,0.0,45,0.00,,,0.00,WXlink_for_OpenVMS,2013-02-02 08:35:00,
2013-02-02 03:40:00,21.9,4.0,29.86,WNW,291,0.0,0.0,45,0.00,,,0.00,WXlink_for_OpenVMS,2013-02-02 08:40:00,
2013-02-02 03:45:00,21.9,4.0,29.86,WNW,282,0.0,0.0,45,0.00,,,0.00,WXlink_for_OpenVMS,2013-02-02 08:45:00,
2013-02-02 03:55:00,21.9,4.0,29.86,WNW,282,0.0,0.0,45,0.00,,,0.00,WXlink_for_OpenVMS,2013-02-02 08:55:00,
2013-02-02 04:00:00,21.9,4.0,29.86,WNW,282,0.0,0.0,45,0.00,,,0.00,WXlink_for_OpenVMS,2013-02-02 09:00:00,
2013-02-02 04:05:00,21.7,4.0,29.86,WNW,282,0.0,0.0,45,0.00,,,0.00,WXlink_for_OpenVMS,2013-02-02 09:05:00,
2013-02-02 04:10:00,21.7,4.0,29.86,WNW,282,0.0,0.0,46,0.00,,,0.00,WXlink_for_OpenVMS,2013-02-02 09:10:00,
2013-02-02 04:15:00,21.6,4.0,29.86,WNW,282,0.0,0.0,46,0.00,,,0.00,WXlink_for_OpenVMS,2013-02-02 09:15:00,
2013-02-02 04:20:00,21.6,4.0,29.86,WNW,282,0.0,0.0,46,0.00,,,0.00,WXlink_for_OpenVMS,2013-02-02 09:20:00,
2013-02-02 04:25:00,21.4,4.0,29.86,WSW,257,0.0,0.0,46,0.00,,,0.00,WXlink_for_OpenVMS,2013-02-02 09:25:00,
2013-02-02 04:30:00,21.2,4.0,29.90,WSW,250,0.0,0.0,46,0.00,,,0.00,WXlink_for_OpenVMS,2013-02-02 09:30:00,
2013-02-02 04:35:00,21.2,4.0,29.90,SW,230,0.0,0.0,46,0.00,,,0.00,WXlink_for_OpenVMS,2013-02-02 09:35:00,
2013-02-02 04:40:00,21.2,4.0,29.90,WSW,250,0.0,0.0,46,0.00,,,0.00,WXlink_for_OpenVMS,2013-02-02 09:40:00,
2013-02-02 04:50:00,21.2,4.0,29.90,WSW,237,0.0,0.0,46,0.00,,,0.00,WXlink_for_OpenVMS,2013-02-02 09:50:00,
2013-02-02 04:55:00,21.2,4.0,29.90,WSW,257,0.0,0.0,46,0.00,,,0.00,WXlink_for_OpenVMS,2013-02-02 09:55:00,
2013-02-02 05:00:00,21.0,3.0,29.90,WSW,257,0.0,0.0,46,0.00,,,0.00,WXlink_for_OpenVMS,2013-02-02 10:00:00,
2013-02-02 05:05:00,21.0,3.0,29.90,WSW,257,0.0,0.0,46,0.00,,,0.00,WXlink_for_OpenVMS,2013-02-02 10:05:00,
2013-02-02 05:10:00,21.0,3.0,29.90,WSW,257,0.0,0.0,46,0.00,,,0.00,WXlink_for_OpenVMS,2013-02-02 10:10:00,
2013-02-02 05:15:00,21.0,3.0,29.90,WSW,248,0.0,0.0,46,0.00,,,0.00,WXlink_for_OpenVMS,2013-02-02 10:15:00,
2013-02-02 05:20:00,21.0,3.0,29.90,WSW,248,0.0,0.0,46,0.00,,,0.00,WXlink_for_OpenVMS,2013-02-02 10:20:00,
2013-02-02 05:30:00,20.8,3.0,29.90,SW,230,0.0,0.0,46,0.00,,,0.00,WXlink_for_OpenVMS,2013-02-02 10:30:00,
2013-02-02 05:35:00,20.8,3.0,29.90,West,281,0.0,0.0,46,0.00,,,0.00,WXlink_for_OpenVMS,2013-02-02 10:35:00,
2013-02-02 05:40:00,20.7,3.0,29.90,West,267,0.0,0.0,46,0.00,,,0.00,WXlink_for_OpenVMS,2013-02-02 10:40:00,
2013-02-02 05:45:00,20.7,3.0,29.90,West,268,0.0,0.0,46,0.00,,,0.00,WXlink_for_OpenVMS,2013-02-02 10:45:00,
2013-02-02 05:50:00,20.7,3.0,29.90,West,268,0.0,0.0,46,0.00,,,0.00,WXlink_for_OpenVMS,2013-02-02 10:50:00,
2013-02-02 05:55:00,20.7,3.0,29.90,WSW,249,0.0,0.0,46,0.00,,,0.00,WXlink_for_OpenVMS,2013-02-02 10:55:00,
2013-02-02 06:05:00,20.5,3.0,29.90,West,278,0.0,0.0,46,0.00,,,0.00,WXlink_for_OpenVMS,2013-02-02 11:05:00,
2013-02-02 06:10:00,20.5,3.0,29.90,West,278,0.0,0.0,46,0.00,,,0.00,WXlink_for_OpenVMS,2013-02-02 11:10:00,
2013-02-02 06:15:00,20.5,3.0,29.90,West,278,0.0,0.0,46,0.00,,,0.00,WXlink_for_OpenVMS,2013-02-02 11:15:00,
2013-02-02 06:20:00,20.3,3.0,29.90,West,278,0.0,0.0,46,0.00,,,0.00,WXlink_for_OpenVMS,2013-02-02 11:20:00,
2013-02-02 06:25:00,20.3,3.0,29.90,West,278,0.0,0.0,46,0.00,,,0.00,WXlink_for_OpenVMS,2013-02-02 11:25:00,
2013-02-02 06:30:00,20.3,3.0,29.93,West,278,0.0,0.0,46,0.00,,,0.00,WXlink_for_OpenVMS,2013-02-02 11:30:00,
2013-02-02 06:35:00,20.3,3.0,29.93,West,278,0.0,0.0,46,0.00,,,0.00,WXlink_for_OpenVMS,2013-02-02 11:35:00,
2013-02-02 06:40:00,20.3,3.0,29.93,West,278,0.0,0.0,47,0.00,,,0.00,WXlink_for_OpenVMS,2013-02-02 11:40:00,
2013-02-02 06:45:00,20.3,3.0,29.93,West,278,0.0,0.0,47,0.00,,,0.00,WXlink_for_OpenVMS,2013-02-02 11:45:00,
2013-02-02 06:55:00,19.6,3.0,29.93,West,278,0.0,0.0,47,0.00,,,0.00,WXlink_for_OpenVMS,2013-02-02 11:55:00,
2013-02-02 07:00:00,19.4,2.0,29.93,West,278,0.0,0.0,47,0.00,,,0.00,WXlink_for_OpenVMS,2013-02-02 12:00:00,
2013-02-02 07:05:00,19.2,2.0,29.93,West,278,0.0,0.0,47,0.00,,,0.00,WXlink_for_OpenVMS,2013-02-02 12:05:00,
2013-02-02 07:10:00,19.6,3.0,29.93,West,278,0.0,0.0,47,0.00,,,0.00,WXlink_for_OpenVMS,2013-02-02 12:10:00,
2013-02-02 07:15:00,19.8,3.0,29.93,West,278,0.0,0.0,47,0.00,,,0.00,WXlink_for_OpenVMS,2013-02-02 12:15:00,
2013-02-02 07:20:00,19.6,3.0,29.93,West,278,0.0,0.0,48,0.00,,,0.00,WXlink_for_OpenVMS,2013-02-02 12:20:00,
2013-02-02 07:25:00,19.6,3.0,29.93,West,278,0.0,0.0,48,0.00,,,0.00,WXlink_for_OpenVMS,2013-02-02 12:25:00,
2013-02-02 07:35:00,19.9,3.0,29.93,West,278,0.0,0.0,48,0.00,,,0.00,WXlink_for_OpenVMS,2013-02-02 12:35:00,
2013-02-02 07:40:00,19.8,3.0,29.93,West,278,0.0,0.0,48,0.00,,,0.00,WXlink_for_OpenVMS,2013-02-02 12:40:00,
2013-02-02 07:45:00,19.8,3.0,29.96,West,278,0.0,0.0,48,0.00,,,0.00,WXlink_for_OpenVMS,2013-02-02 12:45:00,
2013-02-02 07:50:00,19.8,3.0,29.96,West,278,0.0,0.0,48,0.00,,,0.00,WXlink_for_OpenVMS,2013-02-02 12:50:00,
2013-02-02 07:55:00,19.8,3.0,29.96,West,278,0.0,0.0,48,0.00,,,0.00,WXlink_for_OpenVMS,2013-02-02 12:55:00,
2013-02-02 08:05:00,20.3,4.0,29.96,West,278,0.0,0.0,48,0.00,,,0.00,WXlink_for_OpenVMS,2013-02-02 13:05:00,
2013-02-02 08:10:00,20.3,4.0,29.96,West,271,0.0,0.0,48,0.00,,,0.00,WXlink_for_OpenVMS,2013-02-02 13:10:00,
2013-02-02 08:15:00,20.7,4.0,29.96,SW,236,0.0,0.0,48,0.00,,,0.00,WXlink_for_OpenVMS,2013-02-02 13:15:00,
2013-02-02 08:20:00,20.8,4.0,29.96,SW,221,0.0,0.0,48,0.00,,,0.00,WXlink_for_OpenVMS,2013-02-02 13:20:00,
2013-02-02 08:25:00,20.8,4.0,29.96,SW,221,0.0,0.0,47,0.00,,,0.00,WXlink_for_OpenVMS,2013-02-02 13:25:00,
2013-02-02 08:30:00,21.0,4.0,29.96,WNW,287,0.0,3.1,47,0.00,,,0.00,WXlink_for_OpenVMS,2013-02-02 13:30:00,
2013-02-02 08:35:00,21.2,4.0,29.96,NW,316,0.0,0.0,47,0.00,,,0.00,WXlink_for_OpenVMS,2013-02-02 13:35:00,
2013-02-02 08:41:00,21.2,4.0,29.96,West,280,0.0,0.0,47,0.00,,,0.00,WXlink_for_OpenVMS,2013-02-02 13:41:00,
2013-02-02 08:50:00,21.4,4.0,29.96,NW,315,0.0,0.0,47,0.00,,,0.00,WXlink_for_OpenVMS,2013-02-02 13:50:00,
2013-02-02 08:55:00,21.7,5.0,29.96,WSW,245,0.0,0.0,47,0.00,,,0.00,WXlink_for_OpenVMS,2013-02-02 13:55:00,
2013-02-02 09:00:00,21.7,4.0,29.96,WNW,300,2.7,2.7,46,0.00,,,0.00,WXlink_for_OpenVMS,2013-02-02 14:00:00,
2013-02-02 09:05:00,21.9,4.0,29.96,SSW,208,3.1,3.6,46,0.00,,,0.00,WXlink_for_OpenVMS,2013-02-02 14:05:00,
2013-02-02 09:10:00,22.1,4.0,29.96,SW,228,0.0,0.0,46,0.00,,,0.00,WXlink_for_OpenVMS,2013-02-02 14:10:00,
2013-02-02 09:15:00,22.5,5.0,29.96,SW,230,0.0,0.0,46,0.00,,,0.00,WXlink_for_OpenVMS,2013-02-02 14:15:00,
2013-02-02 09:20:00,22.8,5.0,29.96,SSW,198,0.0,0.0,46,0.00,,,0.00,WXlink_for_OpenVMS,2013-02-02 14:20:00,
2013-02-02 09:25:00,23.0,5.0,29.96,SW,222,2.7,3.1,46,0.00,,,0.00,WXlink_for_OpenVMS,2013-02-02 14:25:00,
2013-02-02 09:35:00,22.8,5.0,29.96,SSW,209,2.7,2.7,45,0.00,,,0.00,WXlink_for_OpenVMS,2013-02-02 14:35:00,
2013-02-02 09:40:00,23.2,5.0,29.96,SSW,210,0.0,0.0,45,0.00,,,0.00,WXlink_for_OpenVMS,2013-02-02 14:40:00,
2013-02-02 09:46:00,23.7,5.0,29.96,WNW,301,0.0,0.0,45,0.00,,,0.00,WXlink_for_OpenVMS,2013-02-02 14:46:00,
2013-02-02 09:55:00,23.9,5.0,29.96,NNW,343,0.0,0.0,44,0.00,,,0.00,WXlink_for_OpenVMS,2013-02-02 14:55:00,
2013-02-02 10:05:00,24.4,6.0,29.96,NW,315,0.0,4.0,44,0.00,,,0.00,WXlink_for_OpenVMS,2013-02-02 15:05:00,
2013-02-02 10:10:00,24.6,6.0,29.96,NW,308,0.0,0.0,44,0.00,,,0.00,WXlink_for_OpenVMS,2013-02-02 15:10:00,
2013-02-02 10:15:00,24.6,6.0,29.96,WNW,286,0.0,0.0,44,0.00,,,0.00,WXlink_for_OpenVMS,2013-02-02 15:15:00,
2013-02-02 10:20:00,24.8,6.0,29.96,SSE,163,0.0,0.0,44,0.00,,,0.00,WXlink_for_OpenVMS,2013-02-02 15:20:00,
2013-02-02 10:25:00,25.2,6.0,29.96,SW,217,2.7,4.0,44,0.00,,,0.00,WXlink_for_OpenVMS,2013-02-02 15:25:00,
2013-02-02 10:30:00,25.3,6.0,29.93,SW,220,3.6,3.6,44,0.00,,,0.00,WXlink_for_OpenVMS,2013-02-02 15:30:00,
2013-02-02 10:35:00,25.5,6.0,29.93,West,267,2.2,2.7,43,0.00,,,0.00,WXlink_for_OpenVMS,2013-02-02 15:35:00,
2013-02-02 10:40:00,25.7,6.0,29.93,SW,225,2.7,2.7,43,0.00,,,0.00,WXlink_for_OpenVMS,2013-02-02 15:40:00,
2013-02-02 10:45:00,25.7,6.0,29.93,West,263,3.1,3.1,43,0.00,,,0.00,WXlink_for_OpenVMS,2013-02-02 15:45:00,
2013-02-02 10:55:00,26.2,7.0,29.93,South,186,2.2,0.0,43,0.00,,,0.00,WXlink_for_OpenVMS,2013-02-02 15:55:00,
2013-02-02 11:00:00,26.4,7.0,29.93,SW,227,4.0,4.0,43,0.00,,,0.00,WXlink_for_OpenVMS,2013-02-02 16:00:00,
2013-02-02 11:05:00,26.8,7.0,29.93,SW,221,3.1,0.0,43,0.00,,,0.00,WXlink_for_OpenVMS,2013-02-02 16:05:00,
2013-02-02 11:10:00,27.0,7.0,29.93,WSW,253,0.0,0.0,42,0.00,,,0.00,WXlink_for_OpenVMS,2013-02-02 16:10:00,
2013-02-02 11:15:00,27.0,7.0,29.93,SSW,212,0.0,0.0,42,0.00,,,0.00,WXlink_for_OpenVMS,2013-02-02 16:15:00,
2013-02-02 11:20:00,27.3,7.0,29.93,SSE,164,0.0,0.0,42,0.00,,,0.00,WXlink_for_OpenVMS,2013-02-02 16:20:00,
2013-02-02 11:25:00,27.5,7.0,29.93,SW,229,0.0,0.0,42,0.00,,,0.00,WXlink_for_OpenVMS,2013-02-02 16:25:00,
2013-02-02 11:35:00,28.0,8.0,29.93,West,267,3.1,3.1,42,0.00,,,0.00,WXlink_for_OpenVMS,2013-02-02 16:35:00,
2013-02-02 11:40:00,28.2,8.0,29.93,West,268,3.6,4.0,42,0.00,,,0.00,WXlink_for_OpenVMS,2013-02-02 16:40:00,
2013-02-02 11:45:00,28.4,8.0,29.90,SW,219,2.7,0.0,42,0.00,,,0.00,WXlink_for_OpenVMS,2013-02-02 16:45:00,
2013-02-02 11:51:00,28.6,8.0,29.90,SSE,166,0.0,5.4,42,0.00,,,0.00,WXlink_for_OpenVMS,2013-02-02 16:51:00,
2013-02-02 12:00:00,28.9,8.0,29.90,South,191,2.7,4.0,41,0.00,,,0.00,WXlink_for_OpenVMS,2013-02-02 17:00:00,
2013-02-02 12:05:00,29.5,9.0,29.90,South,177,3.1,3.1,41,0.00,,,0.00,WXlink_for_OpenVMS,2013-02-02 17:05:00,
2013-02-02 12:10:00,29.8,9.0,29.90,SW,233,4.0,4.0,41,0.00,,,0.00,WXlink_for_OpenVMS,2013-02-02 17:10:00,
2013-02-02 12:15:00,30.4,9.0,29.86,South,173,3.6,4.9,41,0.00,,,0.00,WXlink_for_OpenVMS,2013-02-02 17:15:00,
2013-02-02 12:20:00,30.4,9.0,29.86,SW,222,3.6,3.6,40,0.00,,,0.00,WXlink_for_OpenVMS,2013-02-02 17:20:00,
2013-02-02 12:25:00,30.4,9.0,29.86,SE,145,3.6,3.6,40,0.00,,,0.00,WXlink_for_OpenVMS,2013-02-02 17:25:00,
2013-02-02 12:30:00,30.2,9.0,29.86,SSW,201,3.1,3.6,40,0.00,,,0.00,WXlink_for_OpenVMS,2013-02-02 17:30:00,
2013-02-02 12:35:00,30.4,9.0,29.86,SE,142,0.0,0.0,40,0.00,,,0.00,WXlink_for_OpenVMS,2013-02-02 17:35:00,
2013-02-02 12:40:00,30.7,9.0,29.86,South,187,0.0,0.0,40,0.00,,,0.00,WXlink_for_OpenVMS,2013-02-02 17:40:00,
2013-02-02 12:50:00,31.1,10.0,29.86,WSW,244,4.0,4.0,40,0.00,,,0.00,WXlink_for_OpenVMS,2013-02-02 17:50:00,
2013-02-02 12:55:00,31.5,10.0,29.86,South,173,3.6,3.6,40,0.00,,,0.00,WXlink_for_OpenVMS,2013-02-02 17:55:00,
2013-02-02 13:00:00,31.5,10.0,29.86,South,175,4.0,4.0,41,0.00,,,0.00,WXlink_for_OpenVMS,2013-02-02 18:00:00,
2013-02-02 13:05:00,31.8,10.0,29.86,SSW,192,3.6,3.6,40,0.00,,,0.00,WXlink_for_OpenVMS,2013-02-02 18:05:00,
2013-02-02 13:10:00,31.8,11.0,29.86,SW,227,3.6,3.6,41,0.00,,,0.00,WXlink_for_OpenVMS,2013-02-02 18:10:00,
2013-02-02 13:15:00,32.0,11.0,29.86,SW,224,3.6,3.6,41,0.00,,,0.00,WXlink_for_OpenVMS,2013-02-02 18:15:00,
2013-02-02 13:21:00,32.2,11.0,29.86,WNW,297,3.6,3.6,41,0.00,,,0.00,WXlink_for_OpenVMS,2013-02-02 18:21:00,
2013-02-02 13:30:00,31.8,11.0,29.84,SSW,205,3.1,4.9,41,0.00,,,0.00,WXlink_for_OpenVMS,2013-02-02 18:30:00,
2013-02-02 13:35:00,32.2,11.0,29.84,South,175,3.6,3.6,41,0.00,,,0.00,WXlink_for_OpenVMS,2013-02-02 18:35:00,
2013-02-02 13:41:00,31.6,11.0,29.84,South,177,2.2,0.0,41,0.00,,,0.00,WXlink_for_OpenVMS,2013-02-02 18:41:00,
2013-02-02 13:50:00,32.0,11.0,29.84,SW,223,4.0,4.0,41,0.00,,,0.00,WXlink_for_OpenVMS,2013-02-02 18:50:00,
2013-02-02 13:56:00,32.4,11.0,29.84,WSW,238,3.1,5.4,41,0.00,,,0.00,WXlink_for_OpenVMS,2013-02-02 18:56:00,
2013-02-02 14:05:00,32.0,11.0,29.84,South,180,0.0,0.0,41,0.00,,,0.00,WXlink_for_OpenVMS,2013-02-02 19:05:00,
2013-02-02 14:10:00,31.8,10.0,29.84,South,179,0.0,0.0,40,0.00,,,0.00,WXlink_for_OpenVMS,2013-02-02 19:10:00,
2013-02-02 14:15:00,31.3,10.0,29.81,West,266,3.1,5.4,41,0.00,,,0.00,WXlink_for_OpenVMS,2013-02-02 19:15:00,
2013-02-02 14:20:00,31.3,10.0,29.81,SSW,195,0.0,0.0,41,0.00,,,0.00,WXlink_for_OpenVMS,2013-02-02 19:20:00,
2013-02-02 14:25:00,31.1,10.0,29.81,SSE,160,2.2,0.0,41,0.00,,,0.00,WXlink_for_OpenVMS,2013-02-02 19:25:00,
2013-02-02 14:30:00,31.3,10.0,29.81,SSW,206,0.0,0.0,41,0.00,,,0.00,WXlink_for_OpenVMS,2013-02-02 19:30:00,
2013-02-02 14:35:00,31.1,10.0,29.81,SSE,157,2.7,0.0,41,0.00,,,0.00,WXlink_for_OpenVMS,2013-02-02 19:35:00,
2013-02-02 14:40:00,31.1,10.0,29.81,SSW,211,2.7,6.3,41,0.00,,,0.00,WXlink_for_OpenVMS,2013-02-02 19:40:00,
2013-02-02 14:45:00,31.1,10.0,29.81,SE,127,2.7,3.6,41,0.00,,,0.00,WXlink_for_OpenVMS,2013-02-02 19:45:00,
2013-02-02 14:55:00,30.6,10.0,29.81,South,179,4.0,4.0,41,0.00,,,0.00,WXlink_for_OpenVMS,2013-02-02 19:55:00,
2013-02-02 15:00:00,30.6,10.0,29.81,South,184,0.0,0.0,41,0.00,,,0.00,WXlink_for_OpenVMS,2013-02-02 20:00:00,
2013-02-02 15:05:00,30.6,10.0,29.81,ESE,120,0.0,0.0,41,0.00,,,0.00,WXlink_for_OpenVMS,2013-02-02 20:05:00,
2013-02-02 15:10:00,30.6,10.0,29.81,SSE,156,0.0,0.0,41,0.00,,,0.00,WXlink_for_OpenVMS,2013-02-02 20:10:00,
2013-02-02 15:15:00,30.6,10.0,29.81,SSE,156,0.0,0.0,41,0.00,,,0.00,WXlink_for_OpenVMS,2013-02-02 20:15:00,
2013-02-02 15:20:00,30.7,10.0,29.81,SSE,156,0.0,0.0,41,0.00,,,0.00,WXlink_for_OpenVMS,2013-02-02 20:20:00,
2013-02-02 15:25:00,30.7,10.0,29.81,SSE,168,0.0,2.7,41,0.00,,,0.00,WXlink_for_OpenVMS,2013-02-02 20:25:00,
2013-02-02 15:30:00,30.7,10.0,29.81,SSW,213,2.2,0.0,41,0.00,,,0.00,WXlink_for_OpenVMS,2013-02-02 20:30:00,
2013-02-02 15:35:00,30.9,10.0,29.81,SSW,213,0.0,0.0,41,0.00,,,0.00,WXlink_for_OpenVMS,2013-02-02 20:35:00,
2013-02-02 15:45:00,30.7,10.0,29.78,South,173,0.0,0.0,41,0.00,,,0.00,WXlink_for_OpenVMS,2013-02-02 20:45:00,
2013-02-02 15:50:00,30.7,10.0,29.78,SSE,164,0.0,0.0,41,0.00,,,0.00,WXlink_for_OpenVMS,2013-02-02 20:50:00,
2013-02-02 15:55:00,30.7,10.0,29.78,South,176,2.7,2.7,41,0.00,,,0.00,WXlink_for_OpenVMS,2013-02-02 20:55:00,
2013-02-02 16:00:00,30.7,10.0,29.78,South,174,2.7,3.6,41,0.00,,,0.00,WXlink_for_OpenVMS,2013-02-02 21:00:00,
2013-02-02 16:10:00,30.6,10.0,29.78,ESE,107,0.0,0.0,41,0.00,,,0.00,WXlink_for_OpenVMS,2013-02-02 21:10:00,
2013-02-02 16:15:00,30.4,9.0,29.78,SSW,213,0.0,0.0,41,0.00,,,0.00,WXlink_for_OpenVMS,2013-02-02 21:15:00,
2013-02-02 16:20:00,30.4,9.0,29.78,SSW,195,2.7,0.0,41,0.00,,,0.00,WXlink_for_OpenVMS,2013-02-02 21:20:00,
2013-02-02 16:25:00,30.2,9.0,29.78,SW,220,0.0,0.0,41,0.00,,,0.00,WXlink_for_OpenVMS,2013-02-02 21:25:00,
2013-02-02 16:30:00,30.2,9.0,29.78,SW,223,0.0,0.0,41,0.00,,,0.00,WXlink_for_OpenVMS,2013-02-02 21:30:00,
2013-02-02 16:35:00,30.2,9.0,29.78,WNW,297,3.1,3.1,41,0.00,,,0.00,WXlink_for_OpenVMS,2013-02-02 21:35:00,
2013-02-02 16:40:00,30.2,9.0,29.78,SSW,192,2.7,2.7,41,0.00,,,0.00,WXlink_for_OpenVMS,2013-02-02 21:40:00,
2013-02-02 16:46:00,30.2,9.0,29.78,SSW,198,2.7,3.6,41,0.00,,,0.00,WXlink_for_OpenVMS,2013-02-02 21:46:00,
2013-02-02 16:55:00,30.0,9.0,29.78,SSE,168,0.0,4.0,41,0.00,,,0.00,WXlink_for_OpenVMS,2013-02-02 21:55:00,
2013-02-02 17:00:00,29.8,9.0,29.78,SW,217,2.2,3.1,41,0.00,,,0.00,WXlink_for_OpenVMS,2013-02-02 22:00:00,
2013-02-02 17:05:00,29.8,9.0,29.78,SSW,194,4.5,4.5,41,0.00,,,0.00,WXlink_for_OpenVMS,2013-02-02 22:05:00,
2013-02-02 17:10:00,29.8,9.0,29.78,SSW,194,0.0,0.0,41,0.00,,,0.00,WXlink_for_OpenVMS,2013-02-02 22:10:00,
2013-02-02 17:15:00,29.8,9.0,29.78,SW,221,0.0,0.0,41,0.00,,,0.00,WXlink_for_OpenVMS,2013-02-02 22:15:00,
2013-02-02 17:20:00,29.7,9.0,29.78,South,182,2.2,0.0,42,0.00,,,0.00,WXlink_for_OpenVMS,2013-02-02 22:20:00,
2013-02-02 17:25:00,29.7,9.0,29.78,WSW,242,3.1,4.0,42,0.00,,,0.00,WXlink_for_OpenVMS,2013-02-02 22:25:00,
2013-02-02 17:30:00,29.8,10.0,29.78,South,184,0.0,0.0,42,0.00,,,0.00,WXlink_for_OpenVMS,2013-02-02 22:30:00,
2013-02-02 17:40:00,29.8,10.0,29.78,South,185,0.0,0.0,42,0.00,,,0.00,WXlink_for_OpenVMS,2013-02-02 22:40:00,
2013-02-02 17:45:00,29.7,9.0,29.78,SSW,197,0.0,0.0,42,0.00,,,0.00,WXlink_for_OpenVMS,2013-02-02 22:45:00,
2013-02-02 17:50:00,29.7,9.0,29.78,South,172,0.0,0.0,42,0.00,,,0.00,WXlink_for_OpenVMS,2013-02-02 22:50:00,
2013-02-02 17:55:00,29.7,9.0,29.78,SW,220,2.2,3.1,42,0.00,,,0.00,WXlink_for_OpenVMS,2013-02-02 22:55:00,
2013-02-02 18:00:00,29.7,9.0,29.78,SW,224,0.0,4.0,42,0.00,,,0.00,WXlink_for_OpenVMS,2013-02-02 23:00:00,
2013-02-02 18:10:00,29.7,9.0,29.78,SSW,195,0.0,0.0,42,0.00,,,0.00,WXlink_for_OpenVMS,2013-02-02 23:10:00,
2013-02-02 18:15:00,29.5,9.0,29.78,SSW,195,0.0,0.0,42,0.00,,,0.00,WXlink_for_OpenVMS,2013-02-02 23:15:00,
2013-02-02 18:20:00,29.5,9.0,29.78,SSW,195,0.0,0.0,42,0.00,,,0.00,WXlink_for_OpenVMS,2013-02-02 23:20:00,
2013-02-02 18:25:00,29.5,9.0,29.78,SSW,195,0.0,0.0,42,0.00,,,0.00,WXlink_for_OpenVMS,2013-02-02 23:25:00,
2013-02-02 18:30:00,29.3,9.0,29.78,South,186,2.7,0.0,42,0.00,,,0.00,WXlink_for_OpenVMS,2013-02-02 23:30:00,
2013-02-02 18:35:00,29.3,9.0,29.78,South,186,0.0,0.0,42,0.00,,,0.00,WXlink_for_OpenVMS,2013-02-02 23:35:00,
2013-02-02 18:40:00,29.3,9.0,29.78,South,186,0.0,0.0,42,0.00,,,0.00,WXlink_for_OpenVMS,2013-02-02 23:40:00,
2013-02-02 18:50:00,29.1,9.0,29.78,South,186,0.0,0.0,42,0.00,,,0.00,WXlink_for_OpenVMS,2013-02-02 23:50:00,
2013-02-02 18:55:00,28.9,9.0,29.78,South,186,0.0,0.0,42,0.00,,,0.00,WXlink_for_OpenVMS,2013-02-02 23:55:00,
2013-02-02 19:00:00,28.9,9.0,29.78,South,174,0.0,0.0,42,0.00,,,0.00,WXlink_for_OpenVMS,2013-02-03 00:00:00,
2013-02-02 19:05:00,28.9,9.0,29.78,South,173,0.0,0.0,42,0.00,,,0.00,WXlink_for_OpenVMS,2013-02-03 00:05:00,
2013-02-02 19:10:00,28.9,9.0,29.78,South,173,0.0,0.0,42,0.00,,,0.00,WXlink_for_OpenVMS,2013-02-03 00:10:00,
2013-02-02 19:15:00,28.9,9.0,29.78,SSW,207,0.0,0.0,42,0.00,,,0.00,WXlink_for_OpenVMS,2013-02-03 00:15:00,
2013-02-02 19:20:00,28.9,9.0,29.78,SSW,207,0.0,0.0,42,0.00,,,0.00,WXlink_for_OpenVMS,2013-02-03 00:20:00,
2013-02-02 19:25:00,28.9,9.0,29.78,NE,34,2.7,0.0,42,0.00,,,0.00,WXlink_for_OpenVMS,2013-02-03 00:25:00,
2013-02-02 19:35:00,28.9,9.0,29.78,SSW,204,0.0,0.0,43,0.00,,,0.00,WXlink_for_OpenVMS,2013-02-03 00:35:00,
2013-02-02 19:40:00,29.1,9.0,29.78,WSW,244,0.0,0.0,43,0.00,,,0.00,WXlink_for_OpenVMS,2013-02-03 00:40:00,
2013-02-02 19:45:00,28.9,9.0,29.78,SW,214,0.0,0.0,43,0.00,,,0.00,WXlink_for_OpenVMS,2013-02-03 00:45:00,
2013-02-02 19:50:00,28.9,9.0,29.78,SW,214,0.0,0.0,43,0.00,,,0.00,WXlink_for_OpenVMS,2013-02-03 00:50:00,
2013-02-02 19:55:00,28.9,9.0,29.78,SSW,196,0.0,0.0,43,0.00,,,0.00,WXlink_for_OpenVMS,2013-02-03 00:55:00,
2013-02-02 20:05:00,28.9,10.0,29.78,SSW,212,0.0,0.0,44,0.00,,,0.00,WXlink_for_OpenVMS,2013-02-03 01:05:00,
2013-02-02 20:10:00,28.8,10.0,29.78,SW,226,0.0,2.7,44,0.00,,,0.00,WXlink_for_OpenVMS,2013-02-03 01:10:00,
2013-02-02 20:15:00,28.8,10.0,29.78,SW,226,0.0,0.0,44,0.00,,,0.00,WXlink_for_OpenVMS,2013-02-03 01:15:00,
2013-02-02 20:20:00,28.8,10.0,29.78,SE,146,0.0,0.0,44,0.00,,,0.00,WXlink_for_OpenVMS,2013-02-03 01:20:00,
2013-02-02 20:25:00,28.8,10.0,29.78,SSW,206,0.0,0.0,44,0.00,,,0.00,WXlink_for_OpenVMS,2013-02-03 01:25:00,
2013-02-02 20:30:00,28.8,10.0,29.78,SW,223,0.0,0.0,44,0.00,,,0.00,WXlink_for_OpenVMS,2013-02-03 01:30:00,
2013-02-02 20:35:00,28.8,10.0,29.78,SSW,212,0.0,0.0,44,0.00,,,0.00,WXlink_for_OpenVMS,2013-02-03 01:35:00,
2013-02-02 20:45:00,28.6,9.0,29.78,SSW,206,0.0,0.0,44,0.00,,,0.00,WXlink_for_OpenVMS,2013-02-03 01:45:00,
2013-02-02 20:50:00,28.6,9.0,29.78,SW,218,0.0,0.0,44,0.00,,,0.00,WXlink_for_OpenVMS,2013-02-03 01:50:00,
2013-02-02 20:55:00,28.6,9.0,29.78,WNW,301,0.0,0.0,44,0.00,,,0.00,WXlink_for_OpenVMS,2013-02-03 01:55:00,
2013-02-02 21:00:00,28.4,9.0,29.78,WNW,301,0.0,0.0,44,0.00,,,0.00,WXlink_for_OpenVMS,2013-02-03 02:00:00,
2013-02-02 21:05:00,28.4,9.0,29.78,WSW,238,0.0,0.0,44,0.00,,,0.00,WXlink_for_OpenVMS,2013-02-03 02:05:00,
2013-02-02 21:10:00,28.4,9.0,29.78,WSW,238,0.0,0.0,44,0.00,,,0.00,WXlink_for_OpenVMS,2013-02-03 02:10:00,
2013-02-02 21:15:00,28.4,9.0,29.78,WSW,238,0.0,0.0,44,0.00,,,0.00,WXlink_for_OpenVMS,2013-02-03 02:15:00,
2013-02-02 21:20:00,28.2,9.0,29.78,WSW,238,0.0,0.0,44,0.00,,,0.00,WXlink_for_OpenVMS,2013-02-03 02:20:00,
2013-02-02 21:25:00,28.2,9.0,29.78,WSW,238,0.0,0.0,44,0.00,,,0.00,WXlink_for_OpenVMS,2013-02-03 02:25:00,
2013-02-02 21:30:00,28.2,9.0,29.78,WSW,238,0.0,0.0,44,0.00,,,0.00,WXlink_for_OpenVMS,2013-02-03 02:30:00,
2013-02-02 21:40:00,28.2,10.0,29.78,WSW,238,0.0,0.0,45,0.00,,,0.00,WXlink_for_OpenVMS,2013-02-03 02:40:00,
2013-02-02 21:45:00,28.2,10.0,29.78,South,178,0.0,0.0,45,0.00,,,0.00,WXlink_for_OpenVMS,2013-02-03 02:45:00,
2013-02-02 21:50:00,28.2,10.0,29.78,South,178,0.0,0.0,45,0.00,,,0.00,WXlink_for_OpenVMS,2013-02-03 02:50:00,
2013-02-02 21:55:00,28.2,10.0,29.78,South,178,0.0,0.0,45,0.00,,,0.00,WXlink_for_OpenVMS,2013-02-03 02:55:00,
2013-02-02 22:01:00,28.4,10.0,29.78,South,178,0.0,0.0,45,0.00,,,0.00,WXlink_for_OpenVMS,2013-02-03 03:01:00,
2013-02-02 22:10:00,28.6,10.0,29.78,South,178,0.0,0.0,45,0.00,,,0.00,WXlink_for_OpenVMS,2013-02-03 03:10:00,
2013-02-02 22:15:00,28.4,10.0,29.78,South,178,0.0,0.0,45,0.00,,,0.00,WXlink_for_OpenVMS,2013-02-03 03:15:00,
2013-02-02 22:20:00,28.4,10.0,29.78,South,178,0.0,0.0,45,0.00,,,0.00,WXlink_for_OpenVMS,2013-02-03 03:20:00,
2013-02-02 22:25:00,28.2,10.0,29.78,South,178,0.0,0.0,45,0.00,,,0.00,WXlink_for_OpenVMS,2013-02-03 03:25:00,
2013-02-02 22:30:00,28.0,9.0,29.75,South,178,0.0,0.0,45,0.00,,,0.00,WXlink_for_OpenVMS,2013-02-03 03:30:00,
2013-02-02 22:35:00,28.2,10.0,29.75,South,178,0.0,0.0,45,0.00,,,0.00,WXlink_for_OpenVMS,2013-02-03 03:35:00,
2013-02-02 22:45:00,27.9,9.0,29.75,South,178,0.0,0.0,45,0.00,,,0.00,WXlink_for_OpenVMS,2013-02-03 03:45:00,
2013-02-02 22:50:00,27.9,9.0,29.75,South,178,0.0,0.0,45,0.00,,,0.00,WXlink_for_OpenVMS,2013-02-03 03:50:00,
2013-02-02 22:55:00,27.9,9.0,29.75,SE,135,0.0,6.7,45,0.00,,,0.00,WXlink_for_OpenVMS,2013-02-03 03:55:00,
2013-02-02 23:00:00,28.0,9.0,29.75,SSW,212,0.0,0.0,45,0.00,,,0.00,WXlink_for_OpenVMS,2013-02-03 04:00:00,
2013-02-02 23:05:00,28.2,10.0,29.75,SW,220,2.2,0.0,45,0.00,,,0.00,WXlink_for_OpenVMS,2013-02-03 04:05:00,
2013-02-02 23:11:00,28.2,10.0,29.75,SSW,211,2.2,0.0,45,0.00,,,0.00,WXlink_for_OpenVMS,2013-02-03 04:11:00,
2013-02-02 23:20:00,28.0,9.0,29.75,WSW,250,0.0,0.0,45,0.00,,,0.00,WXlink_for_OpenVMS,2013-02-03 04:20:00,
2013-02-02 23:25:00,28.0,9.0,29.75,WSW,246,0.0,0.0,45,0.00,,,0.00,WXlink_for_OpenVMS,2013-02-03 04:25:00,
2013-02-02 23:35:00,28.0,9.0,29.78,SW,234,4.0,4.0,45,0.00,,,0.00,WXlink_for_OpenVMS,2013-02-03 04:35:00,
2013-02-02 23:40:00,27.9,9.0,29.78,WSW,257,2.7,4.0,45,0.00,,,0.00,WXlink_for_OpenVMS,2013-02-03 04:40:00,
2013-02-02 23:45:00,27.9,9.0,29.78,WSW,250,2.7,3.1,45,0.00,,,0.00,WXlink_for_OpenVMS,2013-02-03 04:45:00,
2013-02-02 23:50:00,27.9,9.0,29.78,WSW,238,3.6,4.0,45,0.00,,,0.00,WXlink_for_OpenVMS,2013-02-03 04:50:00,